Regional Weather Roundup
Issued by NWS Midland/Odessa, TX

Skip options and go directly to product.
Home | Oldest Version | Previous Version | Current Version | All | Text Only | Save Text | Print | Product List | Glossary On

Skip product version selection by date and time.   
676
ASUS44 KMAF 221910
RWRMAF
MIDLAND AREA WEATHER ROUNDUP
NATIONAL WEATHER SERVICE MIDLAND TX
100 PM CST MON DEC 22 2014

...IN SOUTHWEST TEXAS AND SOUTHEAST NEW MEXICO...

CITY           SKY/WX    TMP DP  RH WIND       PRES   REMARKS
ALPINE         PTSUNNY   65  30  27 W17       29.89F
ANDREWS        FAIR      58  34  39 NE8       29.75F
ARTESIA        CLOUDY    64  32  29 W13       29.75F
BIG SPRING     CLOUDY    62  33  33 N7        29.75F
CARLSBAD       CLOUDY    67  30  25 W18       29.74F
DRYDEN           N/A     77  29  17 SW24G30   29.69F
FORT STOCKTON  MOSUNNY   75  30  19 NW17G26   29.73F
GUAD PASS      NOT AVBL
HOBBS          SUNNY     57  32  38 N14       29.76F
MARFA          PTSUNNY   59  30  33 W16       29.90F
MIDLAND AIRPK  CLOUDY    64  33  31 N9        29.74F
MIDLAND INTL   CLOUDY    68  32  26 NW24G35   29.73F
ODESSA         CLOUDY    66  30  26 W15       29.74F
PECOS          PTSUNNY   69  33  27 W29       29.74F
PRESIDIO       FAIR      70  31  24 W8        29.84F
SEMINOLE       CLOUDY    58  34  40 N9        29.76F
SNYDER         PTSUNNY   58  36  42 N12       29.72F
WINK           PTSUNNY   73  29  19 W13       29.72F
$$
...OTHER STATIONS IN TEXAS...

CITY           SKY/WX    TMP DP  RH WIND       PRES   REMARKS
ABILENE        PTSUNNY   66  37  34 N13       29.69F
AMARILLO       CLOUDY    50  26  39 N13       29.73F
AUSTIN         PTSUNNY   66  54  65 S15       29.65F
BROWNSVILLE    SUNNY     76  63  64 SW18G26   29.72F
CORPUS CHRISTI PTSUNNY   69  62  78 S10       29.72F
DALLAS FTW     MOSUNNY   63  41  44 W15       29.58F
DEL RIO        CLOUDY    55  52  89 SE3       29.73F
EL PASO        MOSUNNY   62  33  33 SW12      29.85F
HOUSTON INT    PTSUNNY   72  59  63 SW12G20   29.67F
LUBBOCK        PTSUNNY   57  32  38 N10       29.73F
SAN ANGELO     PTSUNNY   73  34  23 NW17G23   29.69F
SAN ANTONIO    PTSUNNY   67  53  61 SW12      29.69F
WACO           SUNNY     72  42  34 W18       29.60F
WICHITA FALLS  NOT AVBL
$$
...OTHER LOCATIONS IN NEW MEXICO...

CITY           SKY/WX    TMP DP  RH WIND       PRES   REMARKS
ALAMAGORDO     SUNNY     59  36  41 SE9       29.84F
ALBUQUERQUE    MOSUNNY   55  33  43 SW6       29.82F
CANNON AFB     NOT AVBL
CLOVIS         CLOUDY    46  25  42 NE9       29.75F
HOLLOMAN AFB   NOT AVBL
ROSWELL        CLOUDY    66  30  26 NW15      29.73F
RUIDOSO        MOSUNNY   54  27  35 NW18G26   29.86S
SANTA FE       MOSUNNY   52  28  39 W23G33    29.75F
TRUTH OR CONSE SUNNY     62  32  32 SW9       29.84F
TUCUMCARI      CLOUDY    48  27  44 N3        29.74F
$$

USA.gov is the U.S. government's official web portal to all federal, state and local government web resources and services.